| time (UTC) | temp F | wind direction | speed knots | gust knots | rain 1hr in | rain 24hr in | rain mn in | humidity % | barometer mb |
| 20260508133018 | 47 | 103 | 0.0 | 0.9 | 0.00 | 0.00 | 0.00 | 66 | 1014.3 |
| 20260508131516 | 47 | 102 | 0.0 | 0.9 | 0.00 | 0.00 | 0.00 | 68 | 1014.1 |
| 20260508130017 | 46 | 98 | 0.0 | 2.6 | 0.00 | 0.00 | 0.00 | 67 | 1014.0 |
| 20260508124512 | 46 | 93 | 0.9 | 2.6 | 0.00 | 0.00 | 0.00 | 68 | 1013.9 |
| 20260508123012 | 45 | 84 | 0.0 | 0.9 | 0.00 | 0.00 | 0.00 | 69 | 1013.8 |
| 20260508121526 | 46 | 85 | 0.0 | 0.9 | 0.00 | 0.00 | 0.00 | 67 | 1013.9 |
| 20260508120008 | 46 | 84 | 0.0 | 0.9 | 0.00 | 0.00 | 0.00 | 70 | 1013.8 |
| 20260508114507 | 46 | 85 | 0.0 | 0.9 | 0.00 | 0.00 | 0.00 | 71 | 1013.9 |
| 20260508113004 | 46 | 32 | 0.9 | 3.5 | 0.00 | 0.00 | 0.00 | 69 | 1013.8 |
| 20260508111501 | 47 | 75 | 0.0 | 0.0 | 0.00 | 0.00 | 0.00 | 65 | 1013.7 |
| 20260508110103 | 48 | 75 | 0.0 | 0.0 | 0.00 | 0.00 | 0.00 | 64 | 1013.7 |
| 20260508104554 | 49 | 75 | 0.0 | 1.7 | 0.00 | 0.00 | 0.00 | 65 | 1013.7 |
| 20260508103056 | 52 | 104 | 0.0 | 0.9 | 0.00 | 0.00 | 0.00 | 64 | 1013.5 |
| 20260508101552 | 52 | 98 | 0.0 | 1.7 | 0.00 | 0.00 | 0.00 | 65 | 1013.4 |
| 20260508100050 | 51 | 101 | 0.0 | 4.3 | 0.00 | 0.00 | 0.00 | 65 | 1013.5 |
| 20260508094603 | 51 | 45 | 0.9 | 2.6 | 0.00 | 0.00 | 0.00 | 64 | 1013.4 |
| 20260508093047 | 52 | 86 | 0.0 | 0.9 | 0.00 | 0.00 | 0.00 | 63 | 1013.4 |
| 20260508091545 | 53 | 50 | 0.0 | 0.9 | 0.00 | 0.00 | 0.00 | 63 | 1013.4 |
| 20260508090043 | 53 | 50 | 0.0 | 2.6 | 0.00 | 0.00 | 0.00 | 63 | 1013.5 |
| 20260508084541 | 53 | 53 | 0.0 | 0.9 | 0.00 | 0.00 | 0.00 | 63 | 1013.4 |
| 20260508083114 | 56 | 54 | 0.0 | 1.7 | 0.00 | 0.00 | 0.00 | 58 | 1013.5 |
| 20260508081534 | 59 | 102 | 0.0 | 3.5 | 0.00 | 0.00 | 0.00 | 55 | 1013.4 |
| 20260508080032 | 59 | 104 | 0.9 | 3.5 | 0.00 | 0.00 | 0.00 | 55 | 1013.4 |
| 20260508074533 | 60 | 145 | 0.0 | 2.6 | 0.00 | 0.00 | 0.00 | 54 | 1013.4 |
| 20260508073029 | 61 | 150 | 0.0 | 5.2 | 0.00 | 0.00 | 0.00 | 52 | 1013.4 |
| 20260508071531 | 61 | 206 | 0.9 | 3.5 | 0.00 | 0.00 | 0.00 | 53 | 1013.3 |
| 20260508070023 | 61 | 120 | 0.0 | 3.5 | 0.00 | 0.00 | 0.00 | 54 | 1013.2 |
| 20260508064540 | 61 | 161 | 0.9 | 2.6 | 0.00 | 0.00 | 0.00 | 53 | 1013.2 |
| 20260508063022 | 62 | 163 | 0.0 | 5.2 | 0.00 | 0.00 | 0.00 | 52 | 1013.2 |
| 20260508061524 | 62 | 133 | 0.0 | 3.5 | 0.00 | 0.00 | 0.00 | 51 | 1013.2 |
| 20260508060023 | 63 | 107 | 0.9 | 5.2 | 0.00 | 0.00 | 0.00 | 50 | 1013.3 |
| 20260508054521 | 64 | 96 | 3.5 | 7.0 | 0.00 | 0.00 | 0.00 | 50 | 1013.1 |
| 20260508053020 | 64 | 89 | 1.7 | 7.0 | 0.00 | 0.00 | 0.00 | 49 | 1013.2 |
| 20260508051519 | 65 | 114 | 1.7 | 4.3 | 0.00 | 0.00 | 0.00 | 48 | 1013.1 |
| 20260508050021 | 65 | 98 | 0.0 | 4.3 | 0.00 | 0.00 | 0.00 | 47 | 1013.0 |
| 20260508044518 | 66 | 98 | 0.9 | 4.3 | 0.00 | 0.00 | 0.00 | 45 | 1012.8 |
| 20260508043017 | 67 | 146 | 0.0 | 5.2 | 0.00 | 0.00 | 0.00 | 42 | 1012.9 |
| 20260508041517 | 68 | 167 | 0.0 | 3.5 | 0.00 | 0.00 | 0.00 | 39 | 1012.8 |
| 20260508040016 | 70 | 142 | 0.0 | 3.5 | 0.00 | 0.00 | 0.00 | 34 | 1012.6 |
| 20260508034516 | 69 | 124 | 0.0 | 2.6 | 0.00 | 0.00 | 0.00 | 35 | 1012.4 |
| 20260508033018 | 70 | 71 | 0.0 | 1.7 | 0.00 | 0.00 | 0.00 | 35 | 1012.2 |
| 20260508031517 | 71 | 70 | 0.0 | 0.9 | 0.00 | 0.00 | 0.00 | 33 | 1011.9 |
| 20260508030015 | 73 | 71 | 0.0 | 0.9 | 0.00 | 0.00 | 0.00 | 31 | 1011.7 |
| 20260508024523 | 74 | 72 | 0.0 | 1.7 | 0.00 | 0.00 | 0.00 | 29 | 1011.8 |
| 20260508023015 | 76 | 73 | 0.0 | 1.7 | 0.00 | 0.00 | 0.00 | 28 | 1011.7 |
| 20260508021515 | 76 | 65 | 0.0 | 0.9 | 0.00 | 0.00 | 0.00 | 27 | 1011.7 |
| 20260508020015 | 76 | 58 | 0.0 | 2.6 | 0.00 | 0.00 | 0.00 | 25 | 1011.8 |
| 20260508014511 | 77 | 61 | 0.9 | 3.5 | 0.00 | 0.00 | 0.00 | 26 | 1011.8 |
| 20260508013009 | 77 | 39 | 0.9 | 3.5 | 0.00 | 0.00 | 0.00 | 25 | 1011.8 |
| 20260508011508 | 78 | 70 | 0.0 | 4.3 | 0.00 | 0.00 | 0.00 | 24 | 1011.8 |
| 20260508010007 | 79 | 49 | 0.0 | 3.5 | 0.00 | 0.00 | 0.00 | 23 | 1011.9 |
| 20260508004506 | 79 | 42 | 1.7 | 2.6 | 0.00 | 0.00 | 0.00 | 22 | 1011.9 |
| 20260508003005 | 79 | 65 | 0.0 | 3.5 | 0.00 | 0.00 | 0.00 | 21 | 1012.0 |
| 20260508001505 | 79 | 351 | 0.0 | 5.2 | 0.00 | 0.00 | 0.00 | 22 | 1012.1 |
| 20260508000004 | 79 | 104 | 1.7 | 3.5 | 0.00 | 0.00 | 0.00 | 21 | 1012.1 |
| 20260507234501 | 80 | 57 | 2.6 | 5.2 | 0.00 | 0.00 | 0.00 | 20 | 1012.3 |
| 20260507233100 | 78 | 52 | 0.9 | 4.3 | 0.00 | 0.00 | 0.00 | 25 | 1012.4 |
| 20260507231611 | 79 | 277 | 0.0 | 4.3 | 0.00 | 0.00 | 0.00 | 21 | 1012.5 |
| 20260507230057 | 79 | 79 | 0.0 | 2.6 | 0.00 | 0.00 | 0.00 | 22 | 1012.7 |
| 20260507224604 | 78 | 44 | 0.9 | 5.2 | 0.00 | 0.00 | 0.00 | 23 | 1013.0 |
| 20260507223050 | 77 | 64 | 0.9 | 6.1 | 0.00 | 0.00 | 0.00 | 24 | 1013.1 |
| 20260507221548 | 77 | 4 | 1.7 | 4.3 | 0.00 | 0.00 | 0.00 | 24 | 1013.2 |
| 20260507220047 | 77 | 13 | 2.6 | 7.0 | 0.00 | 0.00 | 0.00 | 24 | 1013.5 |
| 20260507214545 | 77 | 326 | 0.9 | 6.1 | 0.00 | 0.00 | 0.00 | 25 | 1013.6 |
| 20260507213055 | 77 | 72 | 1.7 | 7.0 | 0.00 | 0.00 | 0.00 | 24 | 1013.7 |
| 20260507211542 | 77 | 56 | 3.5 | 7.0 | 0.00 | 0.00 | 0.00 | 25 | 1013.9 |
| 20260507210045 | 76 | 360 | 1.7 | 5.2 | 0.00 | 0.00 | 0.00 | 26 | 1014.0 |
| 20260507204548 | 76 | 294 | 1.7 | 4.3 | 0.00 | 0.00 | 0.00 | 28 | 1014.2 |
| 20260507203036 | 75 | 122 | 0.9 | 5.2 | 0.00 | 0.00 | 0.00 | 26 | 1014.4 |
| 20260507201537 | 74 | 232 | 2.6 | 4.3 | 0.00 | 0.00 | 0.00 | 26 | 1014.5 |
| 20260507200036 | 73 | 219 | 1.7 | 5.2 | 0.00 | 0.00 | 0.00 | 27 | 1014.6 |
| 20260507194531 | 73 | 330 | 3.5 | 6.1 | 0.00 | 0.00 | 0.00 | 26 | 1014.7 |
| 20260507193029 | 73 | 252 | 1.7 | 5.2 | 0.00 | 0.00 | 0.00 | 26 | 1014.8 |
| 20260507191530 | 72 | 29 | 0.9 | 3.5 | 0.00 | 0.00 | 0.00 | 27 | 1014.9 |
| 20260507190036 | 73 | 85 | 1.7 | 3.5 | 0.00 | 0.00 | 0.00 | 27 | 1015.0 |
| 20260507184535 | 72 | 100 | 0.9 | 3.5 | 0.00 | 0.00 | 0.00 | 26 | 1015.1 |
| 20260507183026 | 71 | 162 | 0.0 | 2.6 | 0.00 | 0.00 | 0.00 | 27 | 1015.2 |
| 20260507181518 | 69 | 56 | 0.9 | 4.3 | 0.00 | 0.00 | 0.00 | 26 | 1015.3 |
| 20260507180016 | 69 | 128 | 0.9 | 3.5 | 0.00 | 0.00 | 0.00 | 31 | 1015.4 |
| 20260507174514 | 68 | 93 | 0.9 | 2.6 | 0.00 | 0.00 | 0.00 | 33 | 1015.5 |
| 20260507173013 | 66 | 342 | 0.9 | 5.2 | 0.00 | 0.00 | 0.00 | 36 | 1015.6 |
| 20260507171508 | 65 | 153 | 0.9 | 4.3 | 0.00 | 0.00 | 0.00 | 38 | 1015.6 |
| 20260507170007 | 65 | 191 | 0.9 | 4.3 | 0.00 | 0.00 | 0.00 | 39 | 1015.6 |
| 20260507164503 | 63 | 240 | 1.7 | 4.3 | 0.00 | 0.00 | 0.00 | 38 | 1015.7 |
| 20260507163105 | 63 | 105 | 0.0 | 4.3 | 0.00 | 0.00 | 0.00 | 41 | 1015.9 |
| 20260507161609 | 63 | 210 | 1.7 | 6.1 | 0.00 | 0.00 | 0.00 | 42 | 1016.0 |
| 20260507154554 | 62 | 154 | 2.6 | 8.7 | 0.00 | 0.00 | 0.00 | 43 | 1015.9 |
| 20260507153056 | 60 | 162 | 2.6 | 9.6 | 0.00 | 0.00 | 0.00 | 45 | 1015.9 |
| 20260507151550 | 60 | 152 | 2.6 | 12.2 | 0.00 | 0.00 | 0.00 | 47 | 1016.0 |
| 20260507150052 | 59 | 114 | 4.3 | 10.4 | 0.00 | 0.00 | 0.00 | 47 | 1015.7 |
| 20260507144550 | 58 | 140 | 4.3 | 13.9 | 0.00 | 0.00 | 0.00 | 48 | 1015.6 |
| 20260507143044 | 58 | 170 | 3.5 | 9.6 | 0.00 | 0.00 | 0.00 | 50 | 1015.6 |
| 20260507141542 | 57 | 222 | 1.7 | 9.6 | 0.00 | 0.00 | 0.00 | 52 | 1015.3 |
| 20260507134541 | 55 | 202 | 0.9 | 7.0 | 0.00 | 0.00 | 0.00 | 55 | 1015.3 |